Home   Weather   Wuhan   Past weeks
Flag for China

Past Weather in Wuhan, Hubei, China — Yesterday and Last 2 Weeks

Now
68 °F

Sunny.


Feels Like: 68 °F
Forecast: 65 / 58 °F
Wind: 8 mph from Southeast

Location: Wuhan Airport

Current Time: Mar 26, 2019 at 6:58:24 pm

Latest Report: Mar 26, 2019 at 6:00 pm


Visibility: 10 mi

Pressure: 29.98 "Hg

Humidity: 56%

Dew Point: 52 °F

Location of WuhanLocation

Past Weather in Wuhan — Graph

°F

Wuhan Temperature Yesterday

Maximum temperature yesterday: 66 °F (at 3:00 pm)
Minimum temperature yesterday: 46 °F (at 4:00 am)
Average temperature yesterday: 56 °F

High & Low Weather Summary for the Past Weeks

 TemperatureHumidityPressure
High77 °F (Mar 20, 3:00 pm)100% (Mar 15, 4:00 am)30.36 "Hg (Mar 15, 4:00 am)
Low45 °F (Mar 23, 4:00 am)15% (Mar 12, 3:00 pm)29.50 "Hg (Mar 20, 4:00 am)
Average58 °F68%30.07 "Hg
* Reported Mar 11 6:00 pm — Mar 26 6:00 pm, Wuhan. Weather by CustomWeather, © 2019

Note: Actual official high and low records may vary slightly from our data, if they occured in-between our weather recording intervals... More about our weather records

Advertising

Wuhan Weather History for the Previous 24 Hours

Scroll right to see more
 ConditionsComfort  
Time TempWeatherWind HumidityBarometerVisibility
6:00 pm
Tue, Mar 26
68 °FSunny.8 mph56%29.98 "Hg10 mi
5:00 pm72 °FPassing clouds.6 mph47%29.98 "HgN/A
4:00 pm72 °FPassing clouds.8 mph44%29.98 "HgN/A
3:00 pm72 °FPassing clouds.6 mph44%30.01 "HgN/A
2:00 pm70 °FSunny.1 mph50%30.04 "Hg10 mi
1:00 pm68 °FClear.3 mph53%30.07 "Hg6 mi
12:00 pm68 °FClear.6 mph56%30.07 "Hg5 mi
11:00 am63 °FClear.6 mph64%30.09 "Hg4 mi
10:00 am61 °FHaze.8 mph72%30.12 "Hg2 mi
9:00 am57 °FFog.8 mph77%30.15 "Hg3 mi
8:00 am55 °FFog.6 mph82%30.12 "Hg3 mi
7:00 am54 °FFog.6 mph88%30.09 "Hg2 mi
6:00 am54 °FFog.3 mph88%30.09 "Hg3 mi
5:00 am52 °FClear.6 mph88%30.07 "Hg4 mi
4:00 am54 °FClear.6 mph82%30.07 "Hg5 mi
3:00 am50 °FClear.3 mph88%30.07 "Hg5 mi
2:00 am52 °FClear.1 mph94%30.09 "Hg4 mi
1:00 am54 °FClear.No wind88%30.09 "Hg4 mi
12:00 am54 °FClear.3 mph94%30.09 "Hg4 mi
11:00 pm
Mon, Mar 25
55 °FClear.3 mph88%30.09 "Hg4 mi
10:00 pm54 °FClear.3 mph82%30.09 "Hg10 mi
9:00 pm55 °FClear.3 mph77%30.07 "Hg10 mi
8:00 pm57 °FClear.3 mph77%30.07 "Hg10 mi
7:00 pm61 °FClear.1 mph59%30.04 "Hg10 mi
6:00 pm64 °FSunny.6 mph52%30.04 "Hg10 mi
Weather by CustomWeather, © 2019

See weather overview